EW2349 Weather Reports


time (UTC)temp
C
wind
direction
speed
KPH
gust
KPH
rain 1hr
cm
rain 24hr
cm
rain mn
cm
humidity
%
barometer
mb
20260906214546 24 360 0.0 0.0 0.00 0.00 0.00 74 1007.5
20260906213043 23 360 0.0 0.0 0.00 0.00 0.00 76 1007.8
20260906211540 23 57 0.0 0.0 0.00 0.00 0.00 76 1008.1
20260906210039 23 360 0.0 0.0 0.00 0.00 0.00 76 1008.2
20260906204539 24 360 0.0 0.0 0.00 0.00 0.00 74 1008.4
20260906203041 24 360 0.0 0.0 0.00 0.00 0.00 74 1008.2
20260906201536 23 360 0.0 0.0 0.00 0.00 0.00 74 1008.2
20260906200034 23 360 0.0 0.0 0.00 0.00 0.00 76 1008.4
20260906194532 23 360 0.0 0.0 0.00 0.00 0.00 76 1008.5
20260906193033 23 360 0.0 0.0 0.00 0.00 0.00 77 1008.7
20260906191529 23 360 0.0 0.0 0.00 0.00 0.00 78 1008.5
20260906190027 22 360 0.0 0.0 0.00 0.00 0.00 78 1008.8
20260906184527 23 15 0.0 0.0 0.00 0.00 0.00 78 1008.8
20260906183043 23 20 0.0 0.0 0.00 0.00 0.00 78 1009.0
20260906181522 22 9 0.0 0.0 0.00 0.00 0.00 80 1009.4
20260906180022 22 5 0.0 0.0 0.00 0.00 0.00 80 1009.4
20260906174519 22 360 0.0 0.0 0.00 0.00 0.00 82 1009.2
20260906173017 22 5 0.0 0.0 0.00 0.00 0.00 83 1009.2
20260906171518 21 28 0.0 0.0 0.00 0.00 0.00 84 1009.4
20260906170012 21 20 0.0 0.0 0.00 0.00 0.00 85 1009.6
20260906164512 21 22 0.0 0.0 0.00 0.00 0.00 85 1009.6
20260906163011 21 360 0.0 0.0 0.00 0.00 0.00 85 1009.7
20260906161509 21 360 0.0 0.0 0.00 0.00 0.00 86 1009.9
20260906160009 20 360 0.0 0.0 0.00 0.00 0.00 86 1009.9
20260906154507 20 360 0.0 0.0 0.00 0.00 0.00 86 1010.2
20260906153006 21 360 0.0 0.0 0.00 0.00 0.00 84 1010.0
20260906151519 21 360 0.0 0.0 0.00 0.00 0.00 84 1009.4
20260906150007 21 5 0.0 0.0 0.00 0.00 0.00 84 1009.2
20260906144506 21 360 0.0 0.0 0.00 0.00 0.00 84 1008.7
20260906143002 21 355 0.0 0.0 0.00 0.00 0.00 86 1008.8
20260906141608 21 5 0.0 0.0 0.00 0.00 0.00 87 1009.0
20260906140057 20 360 0.0 0.0 0.00 0.00 0.00 90 1008.6
20260906134556 19 19 0.0 0.0 0.00 0.00 0.00 93 1009.5
20260906133050 18 57 0.0 0.0 0.00 0.00 0.00 95 1010.8
20260906131549 18 17 0.0 0.0 0.00 0.00 0.00 95 1010.3
20260906130056 17 19 0.0 0.0 0.00 0.00 0.00 95 1010.1
20260906124544 17 17 0.0 0.0 0.00 0.00 0.00 94 1009.7
20260906123042 17 360 0.0 0.0 0.00 0.00 0.00 94 1009.9
20260906121543 17 360 0.0 0.0 0.00 0.00 0.00 94 1009.9
20260906120037 17 355 0.0 0.0 0.00 0.00 0.00 93 1010.3
20260906114546 17 360 0.0 0.0 0.00 0.00 0.00 93 1010.6
20260906113045 17 360 0.0 0.0 0.00 0.00 0.00 93 1010.7
20260906111533 17 360 0.0 0.0 0.00 0.00 0.00 92 1010.9
20260906110033 17 360 0.0 0.0 0.00 0.00 0.00 92 1011.3
20260906104532 17 360 0.0 0.0 0.00 0.00 0.00 92 1011.4
20260906103029 17 360 0.0 0.0 0.00 0.00 0.00 91 1011.4
20260906101529 17 360 0.0 0.0 0.00 0.00 0.00 90 1011.3
20260906100023 18 55 0.0 0.0 0.00 0.00 0.00 88 1010.2
20260906094523 19 56 0.0 0.0 0.00 0.00 0.00 87 1009.6
20260906093022 20 67 0.0 0.0 0.00 0.00 0.00 87 1009.6
20260906091530 20 56 0.0 0.0 0.00 0.00 0.00 87 1009.9
20260906090017 20 38 0.0 0.0 0.00 0.00 0.00 88 1010.1
20260906084517 19 69 0.0 0.0 0.00 0.00 0.00 89 1010.2
20260906083015 18 5 0.0 0.0 0.00 0.00 0.00 88 1010.2
20260906081518 18 5 0.0 0.0 0.00 0.00 0.00 85 1010.0
20260906080011 20 5 0.0 0.0 0.00 0.00 0.00 84 1010.2
20260906074518 20 16 0.0 0.0 0.00 0.00 0.00 86 1010.3
20260906073008 20 17 0.0 0.0 0.00 0.00 0.00 87 1010.3
20260906071507 19 360 0.0 0.0 0.00 0.00 0.00 88 1010.5
20260906070006 19 360 0.0 0.0 0.00 0.00 0.00 88 1010.4
20260906064506 18 360 0.0 0.0 0.00 0.00 0.00 86 1010.4
20260906063001 19 360 0.0 0.0 0.00 0.00 0.00 85 1010.4
20260906061607 20 360 0.0 0.0 0.00 0.00 0.00 84 1010.7
20260906060056 19 360 0.0 0.0 0.00 0.00 0.00 85 1010.8
20260906054557 19 360 0.0 0.0 0.00 0.00 0.00 85 1011.0
20260906053054 19 360 0.0 0.0 0.00 0.00 0.00 83 1011.1
20260906051601 20 360 0.0 0.0 0.00 0.00 0.00 81 1011.1
20260906050055 20 360 0.0 0.0 0.00 0.00 0.00 80 1011.2
20260906044552 21 18 0.0 0.0 0.00 0.00 0.00 78 1011.2
20260906043051 21 20 0.0 0.0 0.00 0.00 0.00 77 1011.2
20260906041551 22 15 0.0 0.0 0.00 0.00 0.00 76 1011.3
20260906040050 22 360 0.0 0.0 0.00 0.00 0.00 75 1011.3
20260906034550 22 11 0.0 0.0 0.00 0.00 0.00 74 1011.4
20260906033052 22 360 0.0 0.0 0.00 0.00 0.00 73 1011.3
20260906031558 22 360 0.0 0.0 0.00 0.00 0.00 72 1011.4
20260906030048 22 360 0.0 0.0 0.00 0.00 0.00 72 1011.4
20260906024546 22 360 0.0 0.0 0.00 0.00 0.00 71 1011.2
20260906023044 22 360 0.0 0.0 0.00 0.00 0.00 71 1011.1
20260906021543 22 5 0.0 0.0 0.00 0.00 0.00 71 1010.7
20260906020040 22 360 0.0 0.0 0.00 0.00 0.00 69 1010.5
20260906014538 23 360 0.0 0.0 0.00 0.00 0.00 68 1010.3
20260906013037 23 360 0.0 0.0 0.00 0.00 0.00 67 1010.2
20260906011540 23 360 0.0 0.0 0.00 0.00 0.00 67 1010.0
20260906010034 23 355 0.0 0.0 0.00 0.00 0.00 65 1009.6
20260906004531 24 360 0.0 0.0 0.00 0.00 0.00 64 1009.2
20260906003031 25 351 0.0 0.0 0.00 0.00 0.00 60 1008.9
20260906001531 28 360 0.0 0.0 0.00 0.00 0.00 55 1008.6
20260906000032 28 5 0.0 0.0 0.00 0.00 0.00 54 1008.6
20260905234529 28 32 0.0 0.0 0.00 0.00 0.00 55 1008.4
20260905233028 28 360 0.0 0.0 0.00 0.00 0.00 56 1008.3
20260905231527 29 24 0.0 0.0 0.00 0.00 0.00 54 1008.3
20260905230028 28 360 0.0 0.0 0.00 0.00 0.00 55 1008.2
20260905224533 28 18 0.0 0.0 0.00 0.00 0.00 56 1008.2
20260905223023 29 360 0.0 0.0 0.00 0.00 0.00 54 1008.1
20260905221521 29 360 0.0 0.0 0.00 0.00 0.00 54 1008.2
20260905220020 28 360 0.0 0.0 0.00 0.00 0.00 54 1008.3